DW5459 Weather Reports


time (UTC)temp
F
wind
direction
speed
knots
gust
knots
rain 1hr
in
rain 24hr
in
rain mn
in
humidity
%
barometer
mb
20260906205025 75 117 4.3 7.0 0.00 0.00 0.00 88
20260906204557 75 120 2.6 4.3 0.00 0.00 0.00 88 1013.5
20260906204518 75 120 2.6 4.3 0.00 0.00 0.00 88
20260906204030 75 121 2.6 7.0 0.00 0.00 0.00 88
20260906203523 75 121 3.5 7.0 0.00 0.00 0.00 88
20260906203117 75 121 3.5 7.0 0.00 0.00 0.00 88 1013.8
20260906203018 75 120 4.3 7.0 0.00 0.00 0.00 88
20260906202531 75 120 4.3 7.0 0.00 0.00 0.00 87
20260906202026 75 119 4.3 6.1 0.00 0.00 0.00 87
20260906201540 75 119 2.6 6.1 0.00 0.00 0.00 87
20260906201514 75 119 2.6 6.1 0.00 0.00 0.00 87 1014.2
20260906201026 75 119 3.5 7.0 0.00 0.00 0.00 87
20260906200540 75 119 3.5 7.0 0.00 0.00 0.00 87
20260906200028 75 119 2.6 7.0 0.00 0.00 0.00 86
20260906200012 75 119 3.5 7.0 0.00 0.00 0.00 86 1013.8
20260906195523 75 119 3.5 6.1 0.00 0.00 0.00 86
20260906195018 75 119 3.5 6.1 0.00 0.00 0.00 86
20260906194600 75 119 1.7 7.8 0.00 0.00 0.00 86 1014.0
20260906194532 75 119 1.7 7.8 0.00 0.00 0.00 86
20260906194024 75 119 3.5 7.8 0.00 0.00 0.00 86
20260906193518 75 117 3.5 7.8 0.00 0.00 0.00 86
20260906193031 75 112 6.1 8.7 0.00 0.00 0.00 86
20260906193006 75 110 6.1 8.7 0.00 0.00 0.00 86 1013.5
20260906192525 75 107 5.2 7.8 0.00 0.00 0.00 87
20260906192019 75 106 2.6 7.8 0.00 0.00 0.00 87
20260906191552 75 105 4.3 8.7 0.00 0.00 0.00 87 1013.4
20260906191534 75 106 5.2 8.7 0.00 0.00 0.00 87
20260906191023 75 134 6.1 8.7 0.00 0.00 0.00 86
20260906190517 75 155 6.1 7.8 0.00 0.00 0.00 86
20260906190110 75 114 3.5 9.6 0.00 0.00 0.00 87 1013.9
20260906190030 75 134 4.3 9.6 0.00 0.00 0.00 87
20260906185523 75 144 6.1 9.6 0.00 0.00 0.00 86
20260906185038 75 133 5.2 8.7 0.00 0.00 0.00 86
20260906184629 75 138 6.1 8.7 0.00 0.00 0.00 86 1014.0
20260906184531 75 118 6.1 8.7 0.00 0.00 0.00 86
20260906184025 75 130 6.1 9.6 0.00 0.00 0.00 86
20260906183541 75 141 6.1 11.3 0.00 0.00 0.00 87
20260906183135 74 117 6.1 11.3 0.00 0.00 0.00 86 1013.7
20260906183055 75 117 7.8 11.3 0.00 0.00 0.00 86
20260906182527 75 125 7.0 12.2 0.00 0.00 0.00 87
20260906182041 74 104 6.1 11.3 0.00 0.00 0.00 88
20260906181641 73 114 7.0 11.3 0.00 0.00 0.00 88 1013.9
20260906181553 74 111 7.0 11.3 0.00 0.00 0.00 89
20260906181045 73 105 7.0 11.3 0.00 0.00 0.00 89
20260906180537 73 109 8.7 13.9 0.00 0.00 0.00 89
20260906180056 73 96 8.7 13.9 0.00 0.00 0.00 90 1014.1
20260906180026 73 112 8.7 13.9 0.00 0.00 0.00 90
20260906175519 73 140 7.8 12.2 0.00 0.00 0.00 90
20260906175031 73 143 7.8 12.2 0.00 0.00 0.00 90
20260906174523 73 148 7.0 13.0 0.00 0.00 0.00 90
20260906174506 72 150 7.0 13.0 0.00 0.00 0.00 90 1014.6
20260906174017 73 151 8.7 13.0 0.00 0.00 0.00 90
20260906173531 73 144 7.0 12.2 0.00 0.00 0.00 89
20260906173059 73 155 6.1 13.0 0.00 0.00 0.00 89 1014.7
20260906173024 73 142 7.0 13.0 0.00 0.00 0.00 89
20260906172539 73 144 7.8 12.2 0.00 0.00 0.00 90
20260906172032 73 84 7.0 13.0 0.00 0.00 0.00 90
20260906171556 72 109 7.8 15.6 0.00 0.00 0.00 90 1014.4
20260906171526 73 112 7.8 19.1 0.00 0.00 0.00 90
20260906171019 73 96 10.4 19.1 0.00 0.00 0.00 90
20260906170533 73 120 10.4 14.8 0.00 0.00 0.00 91
20260906170118 72 82 10.4 13.0 0.00 0.00 0.00 92 1014.1
20260906170026 72 86 10.4 13.0 0.00 0.00 0.00 92
20260906165537 72 93 8.7 13.0 0.00 0.01 0.00 92
20260906165051 72 107 7.0 13.0 0.00 0.01 0.00 92
20260906164618 71 115 7.0 13.9 0.00 0.01 0.00 92 1014.3
20260906164544 72 107 7.8 13.9 0.00 0.01 0.00 93
20260906164017 72 105 11.3 14.8 0.00 0.01 0.00 93
20260906163531 71 101 10.4 14.8 0.00 0.01 0.00 93
20260906163121 71 113 7.8 14.8 0.00 0.01 0.00 93 1014.0
20260906163042 71 101 7.0 13.9 0.00 0.01 0.00 94
20260906162535 71 103 8.7 13.9 0.00 0.01 0.00 94
20260906162031 71 100 7.8 15.6 0.00 0.01 0.00 94
20260906161524 71 92 11.3 18.2 0.00 0.01 0.00 95
20260906161504 70 96 11.3 18.2 0.00 0.01 0.00 95 1013.8
20260906161016 71 80 10.4 14.8 0.00 0.01 0.00 95
20260906160532 71 109 7.8 13.0 0.00 0.01 0.00 95
20260906160052 70 82 7.0 13.0 0.00 0.01 0.00 95 1014.1
20260906160024 70 74 7.8 13.0 0.00 0.01 0.00 96
20260906155518 70 82 8.7 13.9 0.00 0.01 0.00 96
20260906155027 70 82 8.7 13.9 0.00 0.01 0.00 96
20260906154614 70 101 7.0 13.0 0.00 0.01 0.00 96 1014.3
20260906154520 70 91 7.0 13.0 0.00 0.01 0.00 96
20260906154035 70 84 7.8 13.9 0.00 0.01 0.00 96
20260906153529 70 92 8.7 13.9 0.00 0.01 0.00 96
20260906153046 69 74 6.1 11.3 0.00 0.01 0.00 96 1014.1
20260906153022 70 75 7.0 11.3 0.00 0.01 0.00 96
20260906152515 70 72 6.1 10.4 0.00 0.01 0.00 96
20260906152058 70 78 7.0 11.3 0.00 0.01 0.00 96
20260906151552 70 62 5.2 11.3 0.00 0.01 0.00 96
20260906151510 69 80 5.2 9.6 0.00 0.01 0.00 96 1014.1
20260906151025 69 82 6.1 13.9 0.00 0.01 0.00 96
20260906150538 69 82 7.8 13.9 0.00 0.01 0.00 96
20260906150052 69 85 7.0 9.6 0.00 0.01 0.00 96
20260906150012 69 85 6.1 9.6 0.00 0.01 0.00 96 1014.4
20260906145525 69 88 3.5 7.8 0.00 0.02 0.00 96
20260906145038 69 88 6.1 7.8 0.00 0.02 0.00 96
20260906144532 69 90 5.2 7.8 0.00 0.02 0.00 96
20260906144519 69 90 4.3 7.8 0.00 0.02 0.00 96 1014.5
20260906144025 69 90 1.7 7.8 0.00 0.02 0.00 96
20260906143538 69 90 3.5 8.7 0.00 0.02 0.00 96
20260906143106 69 90 6.1 9.6 0.00 0.02 0.00 96 1014.5
20260906143051 69 88 6.1 9.6 0.00 0.02 0.00 96
20260906142524 69 90 7.0 10.4 0.00 0.02 0.00 96
20260906142018 69 113 7.0 10.4 0.00 0.02 0.00 96
20260906141630 69 111 6.1 10.4 0.00 0.02 0.00 96 1014.6
20260906141531 69 103 6.1 10.4 0.00 0.02 0.00 96
20260906141043 69 111 7.0 10.4 0.00 0.02 0.00 96
20260906140516 69 111 7.0 10.4 0.00 0.02 0.00 96
20260906140121 69 107 7.0 11.3 0.00 0.02 0.00 96 1014.6
20260906140026 69 104 7.0 11.3 0.00 0.02 0.00 96
20260906135520 69 115 7.8 10.4 0.00 0.03 0.00 96
20260906135035 69 117 6.1 11.3 0.00 0.03 0.00 95
20260906134636 69 117 6.1 11.3 0.00 0.03 0.00 95 1014.8
20260906134550 69 116 5.2 11.3 0.00 0.03 0.00 95
20260906134021 69 118 6.1 8.7 0.00 0.03 0.00 95
20260906133534 69 118 5.2 8.7 0.00 0.03 0.00 95
20260906133138 69 118 4.3 7.8 0.00 0.03 0.00 95 1014.8
20260906133046 69 118 4.3 8.7 0.00 0.03 0.00 95
20260906132520 69 118 4.3 8.7 0.00 0.03 0.00 95
20260906132016 69 118 3.5 8.7 0.00 0.03 0.00 95
20260906131546 69 118 4.3 7.8 0.00 0.03 0.00 95 1015.0
20260906131530 69 118 5.2 7.8 0.00 0.03 0.00 95
20260906131023 69 118 5.2 7.8 0.00 0.03 0.00 95
20260906130516 69 121 6.1 8.7 0.00 0.03 0.00 95
20260906130148 69 120 5.2 9.6 0.00 0.03 0.00 95 1015.0
20260906130030 69 120 5.2 9.6 0.00 0.03 0.00 95
20260906125523 69 119 6.1 11.3 0.00 0.03 0.00 95
20260906125016 69 141 7.8 11.3 0.00 0.03 0.00 95
20260906124548 69 132 6.1 11.3 0.00 0.03 0.00 95 1014.5
20260906124530 69 131 6.1 11.3 0.00 0.03 0.00 95
20260906124023 69 137 7.0 12.2 0.00 0.03 0.00 95
20260906123515 69 130 7.0 12.2 0.00 0.03 0.00 95
20260906123105 69 121 7.0 12.2 0.00 0.03 0.00 95 1014.7
20260906123029 70 121 7.0 12.2 0.00 0.03 0.00 95
20260906122520 69 139 9.6 12.2 0.00 0.03 0.00 95
20260906122034 69 138 7.0 9.6 0.00 0.03 0.00 95
20260906121631 68 103 4.3 7.8 0.00 0.03 0.00 95 1014.7
20260906121548 68 103 5.2 7.8 0.00 0.03 0.00 95
20260906121021 67 103 5.2 7.8 0.00 0.03 0.00 95
20260906120535 67 103 4.3 7.8 0.00 0.03 0.00 94
20260906120028 67 103 5.2 7.8 0.00 0.03 0.00 94
20260906120013 67 103 4.3 7.0 0.00 0.03 0.00 94 1014.7
20260906115520 67 103 4.3 7.0 0.00 0.03 0.00 94
20260906115034 67 103 3.5 7.8 0.00 0.03 0.00 94
20260906114559 67 103 3.5 7.8 0.00 0.03 0.00 94 1014.6
20260906114528 67 103 4.3 7.8 0.00 0.03 0.00 94
20260906114022 67 103 5.2 8.7 0.00 0.03 0.00 94
20260906113515 68 103 4.3 8.7 0.00 0.03 0.00 94
20260906113122 67 103 5.2 8.7 0.00 0.03 0.00 94 1014.4
20260906113027 68 102 6.1 8.7 0.00 0.03 0.00 94
20260906112541 67 98 6.1 8.7 0.00 0.03 0.00 94
20260906112034 67 98 4.3 6.1 0.00 0.03 0.00 94
20260906111528 67 98 3.5 6.1 0.00 0.03 0.00 94
20260906111512 67 98 3.5 6.1 0.00 0.03 0.00 94 1014.4
20260906111041 67 98 4.3 6.1 0.00 0.03 0.00 94
20260906110600 67 98 3.5 6.1 0.00 0.03 0.00 94
20260906110138 67 98 4.3 6.1 0.00 0.03 0.00 94 1014.4
20260906110051 67 98 5.2 6.1 0.00 0.03 0.00 94
20260906105525 67 98 2.6 6.1 0.00 0.03 0.00 93
20260906105040 67 98 4.3 7.0 0.00 0.03 0.00 93
20260906104620 67 98 3.5 7.0 0.00 0.03 0.00 93 1014.4
20260906104531 67 98 3.5 7.0 0.00 0.03 0.00 93
20260906104024 67 98 3.5 6.1 0.00 0.03 0.00 93
20260906103517 67 98 3.5 7.0 0.00 0.03 0.00 93
20260906103055 67 98 3.5 7.0 0.00 0.03 0.00 93 1014.7
20260906103030 67 98 4.3 7.0 0.00 0.03 0.00 93
20260906102524 68 98 4.3 7.0 0.00 0.03 0.00 93
20260906102020 68 98 3.5 6.1 0.00 0.03 0.00 93
20260906101616 67 98 2.6 6.1 0.00 0.03 0.00 93 1014.8
20260906101534 68 98 3.5 6.1 0.00 0.03 0.00 92
20260906101029 68 98 3.5 6.1 0.00 0.03 0.00 92
20260906100543 68 98 3.5 8.7 0.00 0.03 0.00 92
20260906100121 67 98 5.2 8.7 0.00 0.03 0.00 92 1014.9
20260906100016 68 98 6.1 8.7 0.00 0.03 0.00 92
20260906095530 68 90 5.2 8.7 0.00 0.03 0.00 92
20260906095044 68 90 6.1 8.7 0.00 0.03 0.00 92
20260906094532 67 90 6.1 9.6 0.00 0.03 0.00 92 1014.7
20260906094517 68 90 6.1 9.6 0.00 0.03 0.00 92
20260906094028 68 92 7.0 9.6 0.00 0.03 0.00 92
20260906093522 68 91 6.1 9.6 0.00 0.03 0.00 92
20260906093059 68 92 7.0 9.6 0.00 0.03 0.00 92 1014.7
20260906093036 68 93 7.0 9.6 0.00 0.03 0.00 92
20260906092551 68 96 6.1 11.3 0.00 0.03 0.00 92
20260906092043 68 94 6.1 9.6 0.00 0.03 0.00 92
20260906091541 68 92 6.1 10.4 0.00 0.03 0.00 92 1014.7
20260906091516 68 90 6.1 10.4 0.00 0.03 0.00 92
20260906091031 68 87 7.0 10.4 0.00 0.03 0.00 92
20260906090525 68 83 7.0 11.3 0.00 0.03 0.00 92
20260906090020 68 84 7.0 10.4 0.00 0.03 0.00 91
20260906085532 68 80 5.2 10.4 0.00 0.03 0.00 91
20260906085026 68 80 7.0 11.3 0.00 0.03 0.00 91
20260906084539 68 85 7.0 11.3 0.00 0.03 0.00 91
20260906084504 67 86 7.0 11.3 0.00 0.03 0.00 91 1014.7
20260906084054 68 86 6.1 9.6 0.00 0.03 0.00 91
20260906083527 68 84 7.0 9.6 0.00 0.03 0.00 91
20260906083035 67 85 6.1 9.6 0.00 0.03 0.00 91 1014.8
20260906083019 68 85 7.0 9.6 0.00 0.03 0.00 91
20260906082534 68 85 7.0 9.6 0.00 0.03 0.00 91
20260906082028 68 84 6.1 8.7 0.00 0.03 0.00 91
20260906081557 68 86 5.2 11.3 0.00 0.03 0.00 91 1014.8
20260906081542 68 86 5.2 11.3 0.00 0.03 0.00 91
20260906081032 68 85 6.1 11.3 0.00 0.03 0.00 91
20260906080526 68 84 5.2 7.8 0.00 0.03 0.00 91
20260906080057 68 84 4.3 7.8 0.00 0.03 0.00 92 1014.8
20260906080022 68 84 5.2 7.8 0.00 0.03 0.00 92
20260906075515 68 84 5.2 8.7 0.00 0.03 0.00 92
20260906075030 68 84 6.1 8.7 0.00 0.03 0.00 92
20260906074523 68 85 5.2 7.8 0.00 0.03 0.00 91
20260906074502 67 85 5.2 7.8 0.00 0.03 0.00 91 1014.6
20260906074016 68 85 5.2 7.8 0.00 0.03 0.00 91
20260906073551 68 86 5.2 7.8 0.00 0.03 0.00 91
20260906073038 67 86 4.3 9.6 0.00 0.03 0.00 91 1014.5
20260906073024 68 86 5.2 9.6 0.00 0.03 0.00 91
20260906072515 68 87 6.1 10.4 0.00 0.03 0.00 92
20260906072055 68 82 7.8 11.3 0.00 0.03 0.00 92
20260906071541 67 85 6.1 11.3 0.00 0.03 0.00 92 1014.6
20260906071527 68 86 6.1 11.3 0.00 0.03 0.00 92
20260906071040 68 84 7.0 12.2 0.00 0.03 0.00 92
20260906070554 68 84 7.0 9.6 0.00 0.03 0.00 91
20260906070046 67 80 4.3 8.7 0.00 0.03 0.00 91 1014.8
20260906070024 68 80 5.2 8.7 0.00 0.03 0.00 91
20260906065519 68 79 6.1 8.7 0.00 0.03 0.00 91
20260906065033 68 79 6.1 8.7 0.00 0.03 0.00 91
20260906064611 67 82 6.1 8.7 0.00 0.03 0.00 91 1014.8
20260906064528 68 82 7.0 8.7 0.00 0.03 0.00 91
20260906064024 68 74 5.2 8.7 0.00 0.03 0.00 91
20260906063517 68 72 5.2 9.6 0.00 0.03 0.00 91
20260906063046 68 84 4.3 9.6 0.00 0.03 0.00 90 1014.8
20260906063031 68 84 4.3 9.6 0.00 0.03 0.00 90
20260906062524 68 85 7.0 9.6 0.00 0.03 0.00 90
20260906062018 69 86 6.1 8.7 0.00 0.03 0.00 90
20260906061626 68 90 3.5 8.7 0.00 0.03 0.00 90 1015.0
20260906061533 69 91 4.3 8.7 0.00 0.03 0.00 90
20260906061027 69 92 6.1 9.6 0.00 0.03 0.00 90
20260906060542 69 105 7.0 9.6 0.00 0.03 0.00 90
20260906060133 68 99 5.2 9.6 0.00 0.03 0.00 90 1015.0
20260906060054 69 98 6.1 9.6 0.00 0.03 0.00 90
20260906055526 68 99 3.5 6.1 0.00 0.03 0.00 90
20260906055019 68 99 4.3 8.7 0.00 0.03 0.00 90
20260906054533 68 100 6.1 8.7 0.00 0.03 0.00 90
20260906054526 68 100 5.2 8.7 0.00 0.03 0.00 90 1015.1
20260906054026 68 87 4.3 7.0 0.00 0.03 0.00 90
20260906053540 68 87 4.3 8.7 0.00 0.03 0.00 90
20260906053032 68 87 6.1 8.7 0.00 0.03 0.00 90
20260906053014 68 87 5.2 8.7 0.00 0.03 0.00 90 1015.0
20260906052524 68 84 5.2 8.7 0.00 0.03 0.00 89
20260906052018 69 83 6.1 8.7 0.00 0.03 0.00 89
20260906051609 68 82 2.6 7.8 0.00 0.03 0.00 89 1014.9
20260906051527 69 82 3.5 7.8 0.00 0.03 0.00 89
20260906051020 69 82 5.2 7.8 0.00 0.03 0.00 89
20260906050603 69 82 4.3 8.7 0.00 0.03 0.00 88
20260906050111 69 82 5.2 8.7 0.00 0.03 0.00 88 1014.7
20260906050059 69 82 5.2 8.7 0.00 0.03 0.00 88
20260906045525 69 95 4.3 7.0 0.00 0.03 0.03 88
20260906045019 70 101 3.5 7.8 0.00 0.03 0.03 88
20260906044610 69 101 5.2 8.7 0.00 0.03 0.03 88 1014.6
20260906044533 70 101 6.1 8.7 0.00 0.03 0.03 88
20260906044027 70 96 6.1 8.7 0.00 0.03 0.03 87
20260906043519 70 97 2.6 7.8 0.00 0.03 0.03 87
20260906043032 70 98 4.3 9.6 0.00 0.03 0.03 87
20260906043023 70 98 3.5 9.6 0.00 0.03 0.03 87 1014.5
20260906042525 70 107 5.2 11.3 0.00 0.03 0.03 87
20260906042038 70 112 7.8 12.2 0.00 0.03 0.03 87
20260906041608 70 103 7.0 12.2 0.00 0.03 0.03 87 1014.4
20260906041552 70 108 7.0 12.2 0.00 0.03 0.03 87
20260906041044 70 88 5.2 13.0 0.00 0.03 0.03 87
20260906040538 70 94 8.7 13.0 0.00 0.03 0.03 87
20260906040052 70 90 7.0 14.8 0.00 0.03 0.03 87
20260906040005 70 91 7.0 14.8 0.00 0.03 0.03 87 1014.4
20260906035524 70 112 10.4 14.8 0.00 0.03 0.03 88
20260906035018 70 107 9.6 13.9 0.00 0.03 0.03 88
20260906034601 70 91 8.7 14.8 0.00 0.03 0.03 88 1014.4
20260906034531 70 88 9.6 14.8 0.00 0.03 0.03 88
20260906034026 70 86 11.3 15.6 0.00 0.03 0.03 88
20260906033519 70 78 7.8 13.0 0.00 0.03 0.03 88
20260906033119 70 79 8.7 13.0 0.00 0.03 0.03 88 1014.8
20260906033033 71 62 8.7 13.0 0.00 0.03 0.03 88
20260906032525 71 73 7.8 13.0 0.00 0.03 0.03 87
20260906032037 71 77 6.1 12.2 0.00 0.03 0.03 87
20260906031616 71 69 7.0 12.2 0.00 0.03 0.03 87 1014.9
20260906031531 71 63 7.8 12.2 0.00 0.03 0.03 87
20260906031024 71 67 7.0 13.0 0.00 0.03 0.03 86
20260906030519 72 68 7.8 14.8 0.00 0.03 0.03 85
20260906030048 72 71 8.7 14.8 0.00 0.03 0.03 84 1014.9
20260906030031 73 74 8.7 14.8 0.00 0.03 0.03 84
20260906025523 74 69 9.6 15.6 0.00 0.03 0.03 82
20260906025037 75 56 10.4 15.6 0.00 0.03 0.03 80
20260906024606 75 38 2.6 5.2 0.00 0.03 0.03 79 1014.8
20260906024551 75 38 2.6 5.2 0.00 0.03 0.03 79
20260906024022 75 38 2.6 4.3 0.00 0.03 0.03 79
20260906023516 75 38 2.6 4.3 0.00 0.03 0.03 79
20260906023110 75 38 2.6 4.3 0.00 0.03 0.03 80 1014.7
20260906023030 75 38 2.6 4.3 0.00 0.03 0.03 80
20260906022543 75 38 2.6 4.3 0.00 0.03 0.03 80
20260906022015 75 38 2.6 4.3 0.00 0.03 0.03 79
20260906021615 75 38 0.9 3.5 0.00 0.03 0.03 79 1014.6
20260906021531 75 38 1.7 3.5 0.00 0.03 0.03 79
20260906021022 76 38 1.7 2.6 0.00 0.03 0.03 79
20260906020537 76 38 0.9 3.5 0.00 0.03 0.03 78
20260906020138 76 38 1.7 3.5 0.00 0.03 0.03 77 1014.5
20260906020050 76 38 2.6 3.5 0.00 0.03 0.03 77
20260906015522 77 38 1.7 3.5 0.00 0.03 0.03 77
20260906015017 77 38 2.6 3.5 0.00 0.03 0.03 77
20260906014551 76 38 0.0 2.6 0.00 0.03 0.03 77 1014.5
20260906014530 77 38 0.0 2.6 0.00 0.03 0.03 76
20260906014023 77 38 0.0 1.7 0.00 0.03 0.03 76
20260906013517 77 38 0.0 2.6 0.00 0.03 0.03 76
20260906013107 77 38 0.0 2.6 0.00 0.03 0.03 75 1014.3
20260906013030 77 38 0.0 2.6 0.00 0.03 0.03 75
20260906012543 77 38 0.9 3.5 0.00 0.03 0.03 75
20260906012015 78 38 1.7 7.8 0.00 0.03 0.03 75
20260906011610 77 38 1.7 7.8 0.00 0.03 0.03 75 1014.1
20260906011526 78 38 2.6 7.8 0.00 0.03 0.03 75
20260906011021 78 63 4.3 7.8 0.00 0.03 0.03 75
20260906010534 78 72 2.6 4.3 0.00 0.03 0.03 75
20260906010029 78 72 2.6 7.0 0.00 0.03 0.03 75
20260906010017 77 72 1.7 7.0 0.00 0.03 0.03 75 1014.2
20260906005544 78 72 3.5 7.0 0.00 0.03 0.03 75
20260906005016 78 84 3.5 6.1 0.00 0.03 0.03 75
20260906004530 78 101 2.6 6.1 0.00 0.03 0.03 74
20260906004514 78 101 2.6 5.2 0.00 0.03 0.03 74 1014.1
20260906004024 78 154 0.9 7.0 0.00 0.03 0.03 74
20260906003538 78 157 4.3 9.6 0.00 0.03 0.03 74
20260906003032 78 163 4.3 9.6 0.00 0.03 0.03 75
20260906003020 78 163 5.2 9.6 0.00 0.03 0.03 74 1013.5
20260906002527 78 167 6.1 10.4 0.00 0.03 0.03 75
20260906002020 79 180 7.0 10.4 0.00 0.03 0.03 74
20260906001600 79 175 6.1 10.4 0.00 0.03 0.03 73 1013.5
20260906001533 79 171 6.1 10.4 0.00 0.03 0.03 73
20260906001026 79 180 7.8 10.4 0.00 0.03 0.03 72
20260906000521 80 153 7.8 10.4 0.00 0.03 0.03 72
20260906000029 80 167 5.2 10.4 0.00 0.03 0.03 72 1013.2
20260906000015 80 164 6.1 10.4 0.00 0.03 0.03 72
20260905235530 80 171 5.2 10.4 0.00 0.03 0.03 71
20260905235024 81 175 7.0 10.4 0.00 0.03 0.03 70
20260905234553 80 165 6.1 10.4 0.00 0.03 0.03 70 1012.9
20260905234518 81 168 6.1 10.4 0.00 0.03 0.03 70
20260905234031 81 157 6.1 12.2 0.00 0.03 0.03 70
20260905233525 81 155 6.1 12.2 0.00 0.03 0.03 70
20260905233123 80 152 5.2 9.6 0.00 0.03 0.03 70 1012.4
20260905233019 81 151 6.1 9.6 0.00 0.03 0.03 70
20260905232532 81 161 6.1 10.4 0.00 0.03 0.03 70
20260905232025 81 165 5.2 10.4 0.00 0.03 0.03 69
20260905231546 80 155 4.3 11.3 0.00 0.03 0.03 70 1012.0
20260905231517 81 165 5.2 11.3 0.00 0.03 0.03 70
20260905231033 81 161 7.0 11.3 0.00 0.03 0.03 69
20260905230526 81 161 7.0 11.3 0.00 0.03 0.03 69
20260905230113 81 148 6.1 12.2 0.00 0.03 0.03 69 1012.0
20260905230019 81 161 7.0 12.2 0.00 0.03 0.03 68
20260905225531 81 138 7.0 12.2 0.00 0.03 0.03 68
20260905225024 81 163 7.0 12.2 0.00 0.03 0.03 68
20260905224541 81 159 7.0 11.3 0.00 0.03 0.03 68 1012.2
20260905224520 81 145 7.0 11.3 0.00 0.03 0.03 68
20260905224033 81 154 7.8 12.2 0.00 0.03 0.03 68
20260905223525 81 150 7.8 12.2 0.00 0.03 0.03 67
20260905223104 81 134 6.1 10.4 0.00 0.03 0.03 67 1012.3
20260905223019 82 161 6.1 10.4 0.00 0.03 0.03 67
20260905222528 82 149 5.2 12.2 0.00 0.03 0.03 66
20260905222042 82 154 7.0 13.0 0.00 0.03 0.03 66
20260905221632 81 163 7.8 13.0 0.00 0.03 0.03 66 1012.3
20260905221555 82 152 7.8 13.0 0.00 0.03 0.03 66
20260905221030 82 134 8.7 13.9 0.00 0.03 0.03 66
20260905220523 82 159 7.0 14.8 0.00 0.03 0.03 67
20260905220038 81 168 8.7 14.8 0.00 0.03 0.03 67 1012.2
20260905220016 81 141 8.7 14.8 0.00 0.03 0.03 67
20260905215528 81 152 9.6 12.2 0.00 0.03 0.03 69
20260905215022 80 141 8.7 12.2 0.00 0.03 0.03 70
20260905214601 80 156 6.1 10.4 0.00 0.03 0.03 71 1012.5
20260905214517 80 157 6.1 10.4 0.00 0.03 0.03 71
20260905214031 80 169 5.2 9.6 0.00 0.03 0.03 72
20260905213524 80 144 7.8 10.4 0.00 0.03 0.03 72
20260905213031 79 145 6.1 13.0 0.00 0.03 0.03 72 1012.7
20260905213017 80 164 6.1 13.0 0.00 0.03 0.03 72
20260905212530 80 163 7.8 13.0 0.00 0.03 0.03 71
20260905212021 80 131 8.7 12.2 0.00 0.03 0.03 70
20260905211602 80 157 7.8 13.0 0.00 0.03 0.03 70 1012.8
20260905211534 80 139 7.0 13.0 0.00 0.03 0.03 71
20260905211027 80 147 9.6 14.8 0.00 0.03 0.03 71
20260905210540 80 165 9.6 14.8 0.00 0.03 0.03 72
20260905210108 79 147 8.7 13.0 0.00 0.03 0.03 72 1012.9
20260905210033 79 172 8.7 13.0 0.00 0.03 0.03 72
20260905205525 79 154 8.7 13.0 0.00 0.03 0.03 74